[[{"header":{"parameterUnit":"m.s-1","parameterCategory":1,"la1":30.2992,"la2":30.254,"lo1":-89.0895,"lo2":-89.0443,"dy":0.0025,"dx":0.0025,"nx":19,"ny":19,"refTime":"2026-03-29T21:00:00:Z","depth":0,"parameterNumber":2,"parameterNumberName":"U-component_of_WINDS"},"data":[0,0,0,-5.7293,-5.7296,-5.7438,-5.7439,-5.7633,-5.7635,0,0,0,0,0,0,0,0,0,0,0,-5.7256,-5.7257,-5.7292,-5.7296,-5.7438,-5.7439,-5.7633,-5.7635,0,0,0,0,0,0,0,0,0,0,0,-5.7255,-5.7257,-5.7259,-5.7297,-5.7438,-5.7439,-5.7633,-5.7521,0,0,0,0,0,0,0,0,0,0,-5.7381,-5.7352,-5.7257,-5.7259,-5.7297,-5.7438,-5.7439,-5.7516,-5.7528,-5.7574,0,-5.7614,0,-5.7628,-5.7649,-5.765,0,0,0,-5.7292,-5.7342,-5.7375,-5.7259,-5.7299,-5.7438,-5.7373,-5.7522,-5.7537,-5.759,-5.7617,-5.7624,-5.7631,-5.765,-5.7651,-5.7925,-5.7926,0,0,-5.7284,-5.7285,-5.7365,-5.7384,-5.7361,-5.7368,-5.7377,-5.7531,-5.756,-5.7618,-5.7628,-5.7634,-5.7652,-5.7653,-5.7923,-5.7925,0,0,0,-5.7264,-5.7279,-5.7309,-5.7377,-5.7401,-5.7373,-5.7383,-5.7553,-5.7563,-5.763,-5.7637,-5.7653,-5.7655,-5.7922,-5.7924,-5.7994,0,0,0,-5.7259,-5.7268,-5.7306,-5.7307,-5.7399,-5.7479,-5.7402,-5.7552,-5.757,-5.7636,-5.7653,-5.7657,-5.792,-5.7923,-5.7988,-5.8025,0,0,0,-5.7245,-5.7266,-5.7288,-5.7307,-5.7368,-5.7476,-5.7494,-5.7556,-5.7574,-5.765,-5.7658,-5.7919,-5.7922,-5.7984,-5.8018,-5.8096,0,0,0,-5.7229,-5.7349,-5.729,-5.7427,-5.7367,-5.752,-5.7493,-5.7607,-5.7681,-5.7654,-5.792,-5.7924,-5.7982,-5.8013,-5.809,-5.8158,-5.8187,0,0,-5.7381,-5.7368,-5.7449,-5.7399,-5.7562,-5.7498,-5.7672,-5.7739,-5.7748,-5.7866,-5.7872,-5.799,-5.8017,-5.8094,-5.8359,-5.8382,0,0,0,-5.7497,-5.7554,-5.7598,-5.7668,-5.7723,-5.7773,-5.7814,-5.7841,-5.7941,-5.7808,-5.8042,-5.8058,-5.8103,-5.8135,-5.8155,-5.8193,-5.794,-5.7939,-5.7939,-5.7708,-5.7713,-5.7847,-5.7869,-5.7938,-5.7981,-5.8037,-5.808,-5.8064,-5.812,-5.8152,-5.8312,-5.835,-5.8365,-5.8405,-5.8193,-5.8193,-5.8193,-5.8193,-5.7928,-5.8008,-5.7988,-5.8109,-5.8114,-5.8217,-5.8266,-5.8252,-5.8349,-5.8287,-5.8327,-5.8255,-5.839,-5.8425,-5.8199,-5.8198,-5.8197,-5.8197,-5.8196,-5.8062,-5.8102,-5.8132,-5.8235,-5.8316,-5.8336,-5.8431,-5.8433,-5.8436,-5.8477,-5.8511,-5.851,-5.8506,-5.8494,-5.8495,-5.8495,-5.8496,-5.8496,-5.8497,-5.8188,-5.822,-5.8298,-5.837,-5.8416,-5.8478,-5.8527,-5.8573,-5.8625,-5.8619,-5.862,-5.8597,-5.8404,-5.8353,-5.8505,-5.8503,-5.8502,-5.8502,-5.8501,-5.84,-5.8353,-5.8474,-5.8521,-5.8606,-5.8685,-5.869,-5.8785,-5.8824,-5.8871,-5.8844,-5.8701,-5.8687,-5.8672,-5.8629,-5.8843,-5.8843,-5.8843,-5.8843,-5.851,-5.8505,-5.8629,-5.8704,-5.8778,-5.8796,-5.8934,-5.8975,-5.901,-5.9035,-5.9006,-5.8952,-5.8936,-5.8932,-5.891,-5.887,-5.9141,-5.9142,-5.9142,-5.8639,-5.8642,-5.8757,-5.879,-5.8859,-5.8918,-5.9048,-5.9136,-5.9167,-5.9154,-5.9055,-5.9042,-5.8954,-5.8926,-5.8903,-5.887,-5.8797,0,0]},{"header":{"parameterUnit":"m.s-1","parameterCategory":1,"la1":30.2992,"la2":30.254,"lo1":-89.0895,"lo2":-89.0443,"dy":0.0025,"dx":0.0025,"nx":19,"ny":19,"refTime":"2026-03-29T21:00:00:Z","depth":0,"parameterNumber":3,"parameterNumberName":"V-component_of_WINDS"},"data":[0,0,0,3.5685,3.5687,3.5796,3.5796,3.591,3.591,0,0,0,0,0,0,0,0,0,0,0,3.564,3.564,3.5685,3.5688,3.5795,3.5796,3.5909,3.591,0,0,0,0,0,0,0,0,0,0,0,3.564,3.564,3.564,3.5688,3.5795,3.5796,3.5909,3.5836,0,0,0,0,0,0,0,0,0,0,3.5735,3.568,3.564,3.564,3.5688,3.5795,3.5796,3.5833,3.5841,3.5851,0,3.5857,0,3.5886,3.5917,3.5917,0,0,0,3.5697,3.5674,3.5715,3.564,3.5689,3.5795,3.575,3.5838,3.5846,3.5861,3.5859,3.5864,3.5887,3.5917,3.5918,3.5946,3.5946,0,0,3.5691,3.5651,3.5709,3.572,3.5704,3.5746,3.5753,3.5843,3.5838,3.5859,3.5867,3.5889,3.5918,3.5919,3.5947,3.5946,0,0,0,3.5668,3.5647,3.5687,3.5715,3.5736,3.5749,3.5757,3.5834,3.5851,3.5868,3.5891,3.5918,3.5919,3.5947,3.5946,3.5893,0,0,0,3.5664,3.5633,3.5684,3.566,3.5734,3.5787,3.5745,3.5844,3.5856,3.589,3.5918,3.592,3.5947,3.5947,3.5895,3.5873,0,0,0,3.5637,3.563,3.5641,3.5658,3.5703,3.5786,3.5808,3.5848,3.5869,3.5917,3.5921,3.5948,3.5947,3.5897,3.5877,3.587,0,0,0,3.5596,3.5591,3.564,3.5642,3.5702,3.5753,3.5808,3.5848,3.5882,3.5919,3.5947,3.5947,3.5898,3.5879,3.5872,3.5856,3.5846,0,0,3.5567,3.5585,3.559,3.5637,3.5669,3.5739,3.5764,3.5832,3.5872,3.5919,3.592,3.5894,3.5877,3.587,3.5805,3.5796,0,0,0,3.5567,3.557,3.5587,3.562,3.5673,3.5717,3.5787,3.5813,3.5855,3.5889,3.5891,3.5882,3.588,3.5874,3.5867,3.5867,3.5942,3.5942,3.5943,3.5467,3.5521,3.5532,3.5599,3.5629,3.5703,3.5732,3.5779,3.5822,3.5822,3.5836,3.579,3.5782,3.5777,3.5776,3.5832,3.5832,3.5832,3.5832,3.5429,3.5441,3.5502,3.5534,3.559,3.5618,3.5688,3.5718,3.5751,3.5783,3.5784,3.5814,3.5766,3.5769,3.5828,3.5829,3.5829,3.583,3.583,3.5369,3.5385,3.5417,3.5471,3.5505,3.5573,3.5603,3.5652,3.5699,3.5699,3.572,3.5721,3.5728,3.5706,3.5706,3.5706,3.5705,3.5705,3.5705,3.5294,3.5333,3.5353,3.541,3.5438,3.5481,3.5555,3.5584,3.5628,3.5661,3.5662,3.5705,3.5752,3.5762,3.5703,3.5703,3.5704,3.5704,3.5704,3.5235,3.5257,3.5287,3.5315,3.5387,3.5419,3.5483,3.5536,3.5567,3.558,3.5624,3.5651,3.5673,3.5679,3.5688,3.5612,3.5612,3.5612,3.5612,3.5184,3.5201,3.5244,3.5286,3.5333,3.5394,3.5425,3.5483,3.5545,3.5567,3.5585,3.5602,3.5606,3.5626,3.5633,3.5642,3.5557,3.5557,3.5557,3.5151,3.5175,3.5193,3.5256,3.5317,3.5367,3.5398,3.5443,3.5518,3.5555,3.5585,3.5588,3.5615,3.5621,3.5658,3.5668,3.5686,0,0]}]]